Regional Weather Roundup
Issued by NWS Newport/Morehead, NC

Current Version | Previous Version | Graphics & Text | Print | Product List | Glossary Off
Versions: 1 2 3 4 5 6 7 8 9 10 11 12 13 14 15 16 17 18 19 20 21 22 23 24 25 26 27 28 29 30 31 32 33 34 35 36 37 38 39 40 41 42 43 44 45 46 47 48 49 50

000
ASUS42 KMHX 251410
RWRMHX
WEATHER ROUNDUP FOR EASTERN NORTH CAROLINA
NATIONAL WEATHER SERVICE NEWPORT/MOREHEAD CITY NC
900 AM EST SUN JAN 25 2015

NOTE: "FAIR" INDICATES FEW OR NO CLOUDS BELOW 12,000 FEET
WITH NO SIGNIFICANT WEATHER AND/OR OBSTRUCTIONS TO VISIBILITY

NCZ015>017-031-032-045>047-102-103-251500-
NORTH COAST

CITY           SKY/WX    TMP DP  RH WIND       PRES   REMARKS
EDENTON        SUNNY     40  32  71 W6        29.95R
ELIZABETH CITY SUNNY     39  30  70 W8        29.94R
KITTY HAWK     SUNNY     42  32  69 W7        29.93R
MANTEO         SUNNY     43  32  65 W6        29.94S

$$

NCZ045>047-081-094-103-104-251500-
CENTRAL COAST

CITY           SKY/WX    TMP DP  RH WIND       PRES   REMARKS
FRISCO         SUNNY     44  32  62 NW9       29.96R
SWANQUARTER    NOT AVBL

$$

NCZ095-097-098-100-101-251500-
SOUTHERN COAST

CITY           SKY/WX    TMP DP  RH WIND       PRES   REMARKS
BEAUFORT       SUNNY     43  33  68 NW7       29.98R
CEDAR ISLAND   NOT AVBL
JACKSONVILLE   SUNNY     40  34  79 W6        29.99R
PINEY ISLAND     N/A    N/A N/A N/A MISG      29.97R
WILMINGTON     SUNNY     41  35  79 NW5       30.00R


$$

NCZ011>013-027>030-043-044-078>080-089-090>093-098-251500-
COASTAL PLAIN

CITY           SKY/WX    TMP DP  RH WIND       PRES   REMARKS
AHOSKIE        SUNNY     36  30  79 CALM      29.95R
CLINTON        SUNNY     35  35  99 CALM      30.01R
ELIZABETHTOWN  SUNNY     37  33  85 CALM      29.99S
GOLDSBORO      SUNNY     37  36  96 SW2       29.96R
GREENVILLE     SUNNY     41  32  70 W3        29.98R
HAVELOCK       SUNNY     41  32  70 W5        29.99R
KENANSVILLE    SUNNY     37  33  86 CALM      29.99R
KINSTON        SUNNY     39  30  70 CALM      29.98R
NEW BERN       SUNNY     42  31  64 W6        29.99R
RICHLANDS      SUNNY     39  32  75 CALM      29.99R
ROCKY MOUNT    SUNNY     38  30  73 SW3       29.95S
WASHINGTON     SUNNY     38  31  74 W5        29.97R
WHITEVILLE     MOSUNNY   37  34  90 CALM      29.98F

$$

AMZ130-135-150-152-154-156-158-170-250-252-270-ANZ085-086-088-633-658-670-251500-
MARINE OBSERVATIONS

STATION/POSITION TIME  TEMP    WIND        PRES    WAVE   SWELL
                       AIR SEA DIR/SP/G            HT/PER HT/PER
                 (UTC) (F)     (DEG/KT/KT) (MB)    (FT/S) (FT/S)
CHESAPEAKE LIGHT 1300   42     280/ 13/ 14 1013.3
64 E VA BEACH    1400   45 52  330/ 17/ 21 1012.2    6/ 6   2/11
DUCK             1400   40 43  300/  9/ 12 1012.7
2 E DUCK         1400      43                N/A     3/11   2/11
10 NE DUCK       1400      45                N/A     4/10   2/11
OREGON INLET     1400   42 47  290/  7/  9 1013.7
13E OREGON INLT  1400      46                N/A     5/11   2/11
HATTERAS CG      1400   44 53  310/ 14/ 16 1014.9
DIAMOND BUOY     1400   48 70  330/ 16/ 21 1013.9    6/11   3/11
17 S OCRACOKE    NOT AVBL
CAPE LOOKOUT     1300   44     310/ 10/ 13 1014.6
BEAUFORT LAB     1400   42 50  320/  5/  6 1014.0
27 SE WRIGHTSVLE NOT AVBL
5 SE WRIGHTSVLE  1300   44 51  290/  6/  8 1014.9
225 S CAPE HAT   1304   64 72  290/ 14/ 17 1014.7   10/10  10/10
41 SE CHARLESTON 1400   51 69  310/ 10/ 12 1016.2    4/ 6   3/ 6

$$


USA.gov is the U.S. government's official web portal to all federal, state and local government web resources and services.